GW4147 Weather Reports


Display with metric or nautical units.
time (UTC)temp
F
wind
direction
speed
MPH
gust
MPH
rain 1hr
in
rain 24hr
in
rain mn
in
humidity
%
barometer
mb
20260906191240 98 92 7.0 12.0 0.00 0.00 0.00 39 1013.1
20260906190739 99 94 5.0 15.0 0.00 0.00 0.00 38 1013.1
20260906190234 98 91 4.0 10.0 0.00 0.00 0.00 38 1013.1
20260906185733 97 128 5.0 10.0 0.00 0.00 0.00 40 1013.0
20260906185233 96 88 5.0 6.0 0.00 0.00 0.00 41 1013.3
20260906184733 96 116 7.0 10.0 0.00 0.00 0.00 41 1013.3
20260906184228 96 187 9.0 13.0 0.00 0.00 0.00 40 1013.3
20260906183724 97 113 5.0 12.0 0.00 0.00 0.00 42 1013.4
20260906183220 98 88 5.0 8.0 0.00 0.00 0.00 40 1013.6
20260906182720 97 80 3.0 7.0 0.00 0.00 0.00 41 1013.6
20260906182216 97 109 6.0 10.0 0.00 0.00 0.00 42 1013.5
20260906181711 96 134 3.0 9.0 0.00 0.00 0.00 42 1013.5
20260906181208 95 73 5.0 9.0 0.00 0.00 0.00 43 1013.6
20260906180701 97 68 7.0 11.0 0.00 0.00 0.00 41 1013.9
20260906180156 96 61 6.0 12.0 0.00 0.00 0.00 41 1014.1
20260906175654 97 102 8.0 13.0 0.00 0.00 0.00 40 1013.9
20260906175149 97 129 6.0 9.0 0.00 0.00 0.00 41 1014.1
20260906174648 97 88 4.0 10.0 0.00 0.00 0.00 42 1014.2
20260906174143 97 103 9.0 11.0 0.00 0.00 0.00 41 1014.3
20260906173638 96 109 6.0 11.0 0.00 0.00 0.00 42 1014.5
20260906173134 97 101 5.0 14.0 0.00 0.00 0.00 41 1014.5
20260906172627 96 114 2.0 7.0 0.00 0.00 0.00 44 1014.6
20260906172123 97 209 2.0 7.0 0.00 0.00 0.00 43 1014.5
20260906171622 96 138 4.0 12.0 0.00 0.00 0.00 43 1014.6
20260906171119 96 81 3.0 8.0 0.00 0.00 0.00 43 1014.5
20260906170615 95 119 7.0 9.0 0.00 0.00 0.00 45 1014.6
20260906170114 96 83 5.0 6.0 0.00 0.00 0.00 45 1014.6
20260906165610 96 205 2.0 9.0 0.00 0.00 0.00 45 1014.7
20260906165105 95 172 3.0 7.0 0.00 0.00 0.00 44 1014.7
20260906164604 95 188 3.0 5.0 0.00 0.00 0.00 45 1014.9
20260906164100 95 87 3.0 9.0 0.00 0.00 0.00 45 1014.7
20260906163555 95 128 6.0 9.0 0.00 0.00 0.00 44 1014.7
20260906163051 95 133 5.0 5.0 0.00 0.00 0.00 46 1014.8
20260906162549 95 108 4.0 9.0 0.00 0.00 0.00 46 1014.8
20260906162043 95 86 5.0 6.0 0.00 0.00 0.00 46 1014.7
20260906161538 94 104 6.0 7.0 0.00 0.00 0.00 46 1014.7
20260906161037 95 215 3.0 6.0 0.00 0.00 0.00 45 1014.6
20260906160536 94 113 4.0 7.0 0.00 0.00 0.00 47 1014.6
20260906160035 94 117 5.0 9.0 0.00 0.00 0.00 46 1014.6
20260906155532 94 69 4.0 6.0 0.00 0.00 0.00 48 1014.5
20260906155028 93 140 3.0 6.0 0.00 0.00 0.00 48 1014.5
20260906154523 93 81 5.0 9.0 0.00 0.00 0.00 48 1014.5
20260906154022 93 73 8.0 9.0 0.00 0.00 0.00 49 1014.6
20260906153521 93 78 5.0 9.0 0.00 0.00 0.00 49 1014.4
20260906153017 91 126 8.0 10.0 0.00 0.00 0.00 52 1014.3
20260906152511 91 19 5.0 8.0 0.00 0.00 0.00 53 1014.5
20260906152010 91 28 7.0 9.0 0.00 0.00 0.00 54 1014.5
20260906151506 91 14 3.0 6.0 0.00 0.00 0.00 56 1014.4
20260906151002 91 17 5.0 6.0 0.00 0.00 0.00 54 1014.2
20260906150457 90 37 3.0 5.0 0.00 0.00 0.00 57 1014.1
20260906145955 90 113 2.0 9.0 0.00 0.00 0.00 57 1014.1
20260906145450 89 64 3.0 4.0 0.00 0.00 0.00 59 1014.2
20260906144949 89 45 4.0 4.0 0.00 0.00 0.00 60 1014.4
20260906144445 90 94 5.0 5.0 0.00 0.00 0.00 57 1014.2
20260906143940 89 55 3.0 4.0 0.00 0.00 0.00 61 1014.2
20260906143435 89 76 1.0 3.0 0.00 0.00 0.00 61 1014.3
20260906142931 89 100 1.0 3.0 0.00 0.00 0.00 61 1014.4
20260906142430 88 200 3.0 3.0 0.00 0.00 0.00 62 1014.2
20260906141925 87 203 3.0 4.0 0.00 0.00 0.00 63 1014.3
20260906141420 88 27 1.0 3.0 0.00 0.00 0.00 63 1014.4
20260906140920 87 2 0.0 3.0 0.00 0.00 0.00 66 1014.3
20260906140414 87 132 3.0 3.0 0.00 0.00 0.00 66 1014.3
20260906135913 86 87 1.0 4.0 0.00 0.00 0.00 67 1014.3
20260906135412 86 101 3.0 3.0 0.00 0.00 0.00 67 1014.3
20260906134902 86 80 3.0 5.0 0.00 0.00 0.00 68 1014.4
20260906134358 84 183 0.0 4.0 0.00 0.00 0.00 71 1014.3
20260906133852 84 105 1.0 3.0 0.00 0.00 0.00 71 1014.3
20260906133348 84 91 4.0 5.0 0.00 0.00 0.00 72 1014.3
20260906132843 83 118 2.0 5.0 0.00 0.00 0.00 73 1014.3
20260906132338 83 85 3.0 4.0 0.00 0.00 0.00 73 1014.5
20260906131834 83 82 4.0 5.0 0.00 0.00 0.00 73 1014.4
20260906131329 82 113 1.0 3.0 0.00 0.00 0.00 75 1014.4
20260906130825 82 92 3.0 4.0 0.00 0.00 0.00 75 1014.4
20260906130325 81 124 1.0 4.0 0.00 0.00 0.00 77 1014.3
20260906125823 81 98 2.0 3.0 0.00 0.00 0.00 77 1014.1
20260906125321 81 54 2.0 3.0 0.00 0.00 0.00 78 1014.2
20260906124816 80 125 0.0 3.0 0.00 0.00 0.00 79 1014.1
20260906124312 79 237 0.0 2.0 0.00 0.00 0.00 81 1014.0
20260906123811 78 139 0.0 2.0 0.00 0.00 0.00 83 1014.0
20260906123306 77 106 1.0 2.0 0.00 0.00 0.00 85 1014.0
20260906122805 77 252 0.0 2.0 0.00 0.00 0.00 87 1013.9
20260906122300 76 284 0.0 2.0 0.00 0.00 0.00 88 1013.9
20260906121757 76 253 0.0 2.0 0.00 0.00 0.00 89 1013.7
20260906121253 75 177 0.0 1.0 0.00 0.00 0.00 88 1014.0
20260906120748 75 32 0.0 1.0 0.00 0.00 0.00 88 1013.9
20260906120245 76 352 1.0 2.0 0.00 0.00 0.00 87 1013.6
20260906115740 76 295 0.0 2.0 0.00 0.00 0.00 87 1013.8
20260906115235 76 32 1.0 2.0 0.00 0.00 0.00 87 1013.7
20260906114734 76 6 0.0 2.0 0.00 0.00 0.00 87 1013.6
20260906114230 76 106 0.0 2.0 0.00 0.00 0.00 86 1013.5
20260906113725 76 202 0.0 2.0 0.00 0.00 0.00 86 1013.4
20260906113224 76 162 1.0 2.0 0.00 0.00 0.00 86 1013.6
20260906112724 77 116 0.0 2.0 0.00 0.00 0.00 86 1013.5
20260906112221 76 116 1.0 2.0 0.00 0.00 0.00 87 1013.5
20260906111720 76 71 1.0 2.0 0.00 0.00 0.00 86 1013.5
20260906111215 76 50 0.0 2.0 0.00 0.00 0.00 86 1013.4
20260906110710 77 115 1.0 1.0 0.00 0.00 0.00 86 1013.3
20260906110206 77 182 0.0 2.0 0.00 0.00 0.00 86 1013.3
20260906105659 77 302 0.0 2.0 0.00 0.00 0.00 85 1013.1
20260906105156 77 116 0.0 1.0 0.00 0.00 0.00 85 1013.2
20260906104655 77 154 0.0 1.0 0.00 0.00 0.00 84 1013.0
20260906104149 77 326 0.0 2.0 0.00 0.00 0.00 84 1013.0
20260906103647 78 121 0.0 2.0 0.00 0.00 0.00 84 1013.1
20260906103143 77 147 0.0 2.0 0.00 0.00 0.00 84 1012.9
20260906102637 77 0 0.0 1.0 0.00 0.00 0.00 84 1013.1
20260906102132 78 105 1.0 1.0 0.00 0.00 0.00 83 1013.1
20260906101631 78 136 1.0 2.0 0.00 0.00 0.00 82 1013.0
20260906101131 78 129 2.0 2.0 0.00 0.00 0.00 83 1012.9
20260906100627 78 135 0.0 2.0 0.00 0.00 0.00 82 1012.7
20260906100122 78 208 0.0 1.0 0.00 0.00 0.00 81 1013.1
20260906095621 78 109 0.0 2.0 0.00 0.00 0.00 82 1013.0
20260906095117 78 169 0.0 2.0 0.00 0.00 0.00 83 1012.9
20260906094616 78 313 0.0 1.0 0.00 0.00 0.00 82 1013.0
20260906094112 78 40 0.0 1.0 0.00 0.00 0.00 81 1012.9
20260906093608 79 89 0.0 1.0 0.00 0.00 0.00 80 1012.9
20260906093102 79 196 0.0 1.0 0.00 0.00 0.00 80 1012.7
20260906092558 79 9 1.0 2.0 0.00 0.00 0.00 80 1012.8
20260906092053 79 337 1.0 2.0 0.00 0.00 0.00 79 1012.8
20260906091548 79 75 1.0 2.0 0.00 0.00 0.00 79 1012.9
20260906091045 80 32 2.0 3.0 0.00 0.00 0.00 78 1012.6
20260906090545 80 127 1.0 1.0 0.00 0.00 0.00 77 1012.7
20260906090040 80 174 0.0 1.0 0.00 0.00 0.00 77 1012.5
20260906085539 80 75 0.0 1.0 0.00 0.00 0.00 77 1012.7
20260906085038 80 3 0.0 2.0 0.00 0.00 0.00 76 1012.4
20260906084533 80 179 2.0 2.0 0.00 0.00 0.00 76 1012.3
20260906084032 81 170 0.0 1.0 0.00 0.00 0.00 76 1012.3
20260906083528 81 131 0.0 1.0 0.00 0.00 0.00 75 1012.4
20260906083027 81 141 0.0 2.0 0.00 0.00 0.00 75 1012.4
20260906082522 81 96 1.0 4.0 0.00 0.00 0.00 75 1012.3
20260906082018 80 235 0.0 3.0 0.00 0.00 0.00 75 1012.3
20260906081514 80 227 0.0 1.0 0.00 0.00 0.00 75 1012.2
20260906081009 81 352 0.0 1.0 0.00 0.00 0.00 74 1012.2
20260906080506 81 202 0.0 1.0 0.00 0.00 0.00 73 1012.4
20260906080000 81 326 0.0 2.0 0.00 0.00 0.00 73 1012.4
20260906075450 81 179 1.0 2.0 0.00 0.00 0.00 73 1012.4
20260906074945 82 69 0.0 2.0 0.00 0.00 0.00 72 1012.3
20260906074444 82 141 1.0 3.0 0.00 0.00 0.00 72 1012.3
20260906073943 82 141 0.0 2.0 0.00 0.00 0.00 72 1012.6
20260906073438 82 213 0.0 2.0 0.00 0.00 0.00 71 1012.5
20260906072934 82 202 1.0 3.0 0.00 0.00 0.00 71 1012.5
20260906072429 82 110 0.0 3.0 0.00 0.00 0.00 71 1012.4
20260906071925 82 31 0.0 3.0 0.00 0.00 0.00 71 1012.5
20260906071422 82 192 0.0 3.0 0.00 0.00 0.00 71 1012.6
20260906070917 82 214 1.0 4.0 0.00 0.00 0.00 70 1012.8
20260906070413 82 152 2.0 3.0 0.00 0.00 0.00 70 1012.8
20260906065908 82 127 0.0 3.0 0.00 0.00 0.00 70 1012.6
20260906065402 82 191 2.0 3.0 0.00 0.00 0.00 70 1012.8
20260906064858 83 79 2.0 3.0 0.00 0.00 0.00 70 1013.0
20260906064354 83 181 2.0 3.0 0.00 0.00 0.00 70 1012.9
20260906063848 83 183 2.0 3.0 0.00 0.00 0.00 70 1012.8
20260906063344 83 191 3.0 3.0 0.00 0.00 0.00 70 1012.7
20260906062839 82 169 2.0 3.0 0.00 0.00 0.00 70 1012.7
20260906062338 82 117 0.0 2.0 0.00 0.00 0.00 69 1012.7
20260906061833 83 252 0.0 3.0 0.00 0.00 0.00 69 1012.8
20260906061330 83 171 0.0 2.0 0.00 0.00 0.00 68 1012.5
20260906060824 83 158 0.0 1.0 0.00 0.00 0.00 68 1012.7
20260906060322 83 186 0.0 2.0 0.00 0.00 0.00 67 1012.4
20260906055817 83 151 0.0 2.0 0.00 0.00 0.00 67 1012.5
20260906055313 84 206 2.0 3.0 0.00 0.00 0.00 66 1012.6
20260906054808 84 209 0.0 3.0 0.00 0.00 0.00 66 1012.8
20260906054303 84 184 0.0 3.0 0.00 0.00 0.00 66 1012.9
20260906053800 84 141 0.0 3.0 0.00 0.00 0.00 66 1012.6
20260906053255 84 121 1.0 2.0 0.00 0.00 0.00 65 1012.9
20260906052750 84 123 0.0 3.0 0.00 0.00 0.00 65 1012.9
20260906052247 84 195 0.0 3.0 0.00 0.00 0.00 65 1013.0
20260906051743 84 230 0.0 3.0 0.00 0.00 0.00 64 1012.9
20260906051244 85 259 0.0 2.0 0.00 0.00 0.00 64 1013.2
20260906050739 85 89 2.0 3.0 0.00 0.00 0.00 64 1013.0
20260906050233 85 186 3.0 4.0 0.00 0.00 0.00 63 1012.8
20260906045732 85 148 1.0 3.0 0.00 0.00 0.00 63 1012.9
20260906045222 85 258 0.0 5.0 0.00 0.00 0.00 62 1012.9
20260906044717 85 338 1.0 2.0 0.00 0.00 0.00 62 1013.0
20260906044212 85 165 2.0 5.0 0.00 0.00 0.00 62 1012.9
20260906043708 85 158 2.0 4.0 0.00 0.00 0.00 61 1012.9
20260906043203 85 169 3.0 5.0 0.00 0.00 0.00 61 1012.9
20260906042703 86 150 2.0 3.0 0.00 0.00 0.00 61 1012.9
20260906042156 86 157 0.0 5.0 0.00 0.00 0.00 60 1012.8
20260906041652 86 91 1.0 4.0 0.00 0.00 0.00 60 1012.5
20260906041147 86 145 2.0 5.0 0.00 0.00 0.00 59 1012.7
20260906040643 86 181 2.0 3.0 0.00 0.00 0.00 59 1012.8
20260906040138 86 213 2.0 3.0 0.00 0.00 0.00 58 1012.7
20260906035633 87 167 5.0 6.0 0.00 0.00 0.00 58 1012.8
20260906035129 87 204 5.0 5.0 0.00 0.00 0.00 58 1012.8
20260906034630 86 189 3.0 6.0 0.00 0.00 0.00 58 1012.9
20260906034124 86 224 2.0 3.0 0.00 0.00 0.00 59 1012.8
20260906033620 87 150 2.0 4.0 0.00 0.00 0.00 58 1012.8
20260906033120 87 44 2.0 4.0 0.00 0.00 0.00 58 1012.8
20260906032617 87 202 0.0 4.0 0.00 0.00 0.00 58 1012.9
20260906032116 87 167 0.0 3.0 0.00 0.00 0.00 57 1012.9
20260906031612 87 201 3.0 5.0 0.00 0.00 0.00 56 1012.8
20260906031107 87 145 3.0 5.0 0.00 0.00 0.00 56 1012.8
20260906030606 87 134 2.0 4.0 0.00 0.00 0.00 56 1012.8
20260906030101 88 155 2.0 5.0 0.00 0.00 0.00 55 1012.7
20260906025555 88 220 6.0 6.0 0.00 0.00 0.00 55 1012.7
20260906025054 88 182 2.0 5.0 0.00 0.00 0.00 54 1012.7
20260906024549 89 197 3.0 9.0 0.00 0.00 0.00 53 1012.6
20260906024043 89 159 2.0 6.0 0.00 0.00 0.00 53 1012.4
20260906023540 89 185 2.0 3.0 0.00 0.00 0.00 52 1012.5
20260906023034 90 164 2.0 4.0 0.00 0.00 0.00 51 1012.5
20260906022530 90 198 3.0 8.0 0.00 0.00 0.00 51 1012.0
20260906022025 90 199 5.0 9.0 0.00 0.00 0.00 50 1012.1
20260906021520 91 349 0.0 4.0 0.00 0.00 0.00 50 1012.1
20260906021014 91 127 2.0 6.0 0.00 0.00 0.00 49 1011.9
20260906020514 91 149 2.0 5.0 0.00 0.00 0.00 49 1012.0
20260906020013 91 130 0.0 5.0 0.00 0.00 0.00 47 1012.0
20260906015512 91 147 2.0 2.0 0.00 0.00 0.00 46 1012.1
20260906015007 91 55 0.0 2.0 0.00 0.00 0.00 45 1011.8
20260906014502 91 129 0.0 1.0 0.00 0.00 0.00 45 1011.6
20260906013957 91 99 0.0 2.0 0.00 0.00 0.00 44 1011.6
20260906013453 92 93 1.0 2.0 0.00 0.00 0.00 44 1011.6
20260906012948 92 78 2.0 4.0 0.00 0.00 0.00 43 1011.2
20260906012442 92 83 1.0 3.0 0.00 0.00 0.00 43 1011.3
20260906011942 92 105 3.0 3.0 0.00 0.00 0.00 43 1011.5
20260906011437 93 98 0.0 4.0 0.00 0.00 0.00 42 1011.2
20260906010932 93 108 1.0 4.0 0.00 0.00 0.00 42 1011.2
20260906010428 93 98 2.0 3.0 0.00 0.00 0.00 42 1011.2
20260906005924 93 98 3.0 3.0 0.00 0.00 0.00 41 1011.1
20260906005423 94 127 3.0 4.0 0.00 0.00 0.00 41 1011.0
20260906004922 94 97 1.0 3.0 0.00 0.00 0.00 41 1011.1
20260906004416 94 106 3.0 5.0 0.00 0.00 0.00 40 1011.1
20260906003912 95 92 2.0 3.0 0.00 0.00 0.00 40 1010.9
20260906003407 95 95 2.0 5.0 0.00 0.00 0.00 39 1011.1
20260906002902 96 107 5.0 7.0 0.00 0.00 0.00 38 1010.9
20260906002401 96 112 2.0 4.0 0.00 0.00 0.00 38 1011.0
20260906001852 97 112 1.0 4.0 0.00 0.00 0.00 37 1011.0
20260906001348 97 224 1.0 7.0 0.00 0.00 0.00 37 1011.1
20260906000843 97 144 4.0 5.0 0.00 0.00 0.00 37 1011.0
20260906000342 98 84 4.0 5.0 0.00 0.00 0.00 36 1011.1
20260905235837 98 65 0.0 2.0 0.00 0.00 0.00 36 1010.8
20260905235337 97 129 4.0 5.0 0.00 0.00 0.00 36 1010.9
20260905234832 98 71 5.0 5.0 0.00 0.00 0.00 36 1010.7
20260905234327 98 106 4.0 6.0 0.00 0.00 0.00 36 1010.8
20260905233822 98 83 4.0 6.0 0.00 0.00 0.00 36 1010.6
20260905233317 98 116 3.0 3.0 0.00 0.00 0.00 36 1010.6
20260905232816 98 172 1.0 9.0 0.00 0.00 0.00 36 1010.8
20260905232313 99 115 3.0 4.0 0.00 0.00 0.00 36 1010.7
20260905231808 98 66 2.0 6.0 0.00 0.00 0.00 36 1010.7
20260905231303 98 223 2.0 3.0 0.00 0.00 0.00 36 1010.9
20260905230754 99 64 5.0 7.0 0.00 0.00 0.00 35 1010.9
20260905230251 99 79 3.0 5.0 0.00 0.00 0.00 35 1010.8
20260905225745 100 170 2.0 4.0 0.00 0.00 0.00 35 1011.1
20260905225241 100 159 4.0 5.0 0.00 0.00 0.00 35 1010.6
20260905224739 99 157 3.0 6.0 0.00 0.00 0.00 36 1010.8
20260905224236 99 200 5.0 6.0 0.00 0.00 0.00 36 1010.7
20260905223732 100 108 4.0 5.0 0.00 0.00 0.00 35 1010.9
20260905223228 100 234 4.0 6.0 0.00 0.00 0.00 36 1010.7
20260905222724 99 104 4.0 6.0 0.00 0.00 0.00 36 1010.8
20260905222223 99 220 5.0 6.0 0.00 0.00 0.00 36 1010.7
20260905221719 99 98 6.0 9.0 0.00 0.00 0.00 36 1010.8
20260905221216 100 96 0.0 4.0 0.00 0.00 0.00 36 1010.8
20260905220711 99 125 4.0 8.0 0.00 0.00 0.00 36 1010.9
20260905220207 99 128 3.0 6.0 0.00 0.00 0.00 37 1010.8
20260905215706 100 143 2.0 9.0 0.00 0.00 0.00 36 1011.0
20260905215202 101 75 4.0 8.0 0.00 0.00 0.00 36 1011.0
20260905214658 100 336 1.0 6.0 0.00 0.00 0.00 36 1010.9
20260905214152 100 93 3.0 4.0 0.00 0.00 0.00 36 1011.0
20260905213648 100 199 3.0 4.0 0.00 0.00 0.00 36 1011.2
20260905213144 100 202 5.0 8.0 0.00 0.00 0.00 36 1011.2
20260905212639 100 94 6.0 7.0 0.00 0.00 0.00 37 1011.0
20260905212138 99 73 3.0 4.0 0.00 0.00 0.00 37 1011.3
20260905211633 100 131 6.0 10.0 0.00 0.00 0.00 36 1011.5
20260905211129 100 160 4.0 5.0 0.00 0.00 0.00 36 1011.6
20260905210625 99 239 2.0 6.0 0.00 0.00 0.00 36 1011.6
20260905210120 100 261 3.0 4.0 0.00 0.00 0.00 36 1011.6
20260905205618 99 180 3.0 8.0 0.00 0.00 0.00 37 1011.6
20260905205112 98 251 0.0 7.0 0.00 0.00 0.00 38 1011.6
20260905204606 99 96 4.0 8.0 0.00 0.00 0.00 37 1011.9
20260905204102 100 99 4.0 5.0 0.00 0.00 0.00 36 1012.0
20260905203601 99 200 4.0 4.0 0.00 0.00 0.00 37 1012.0
20260905203057 99 237 0.0 7.0 0.00 0.00 0.00 37 1011.9
20260905202552 99 78 1.0 5.0 0.00 0.00 0.00 37 1012.1
20260905202048 99 128 2.0 7.0 0.00 0.00 0.00 37 1012.3
20260905201543 98 6 2.0 8.0 0.00 0.00 0.00 38 1012.2
20260905201043 98 49 2.0 8.0 0.00 0.00 0.00 38 1012.3
20260905200538 98 348 3.0 6.0 0.00 0.00 0.00 37 1012.5
20260905200038 99 199 3.0 5.0 0.00 0.00 0.00 37 1012.5
20260905195532 99 95 4.0 8.0 0.00 0.00 0.00 37 1012.5
20260905195027 100 185 3.0 10.0 0.00 0.00 0.00 37 1012.6
20260905194528 99 110 2.0 5.0 0.00 0.00 0.00 38 1012.7
20260905194027 99 242 5.0 5.0 0.00 0.00 0.00 37 1012.8
20260905193522 98 133 3.0 6.0 0.00 0.00 0.00 37 1012.9
20260905193017 99 154 2.0 7.0 0.00 0.00 0.00 37 1012.9
20260905192512 99 127 4.0 7.0 0.00 0.00 0.00 38 1012.9
20260905192008 97 186 4.0 4.0 0.00 0.00 0.00 41 1013.2